Flag for U.S.A. Weather past 2 weeks in Montpelier, Vermont, U.S.A.

Now
63 °F

Fog.


Feels Like: 63 °F
Forecast: 57 / 82 °F
Wind: 3 mph from North

Location: Knapp State Airport

Current Time: Sep 1, 2015 at 10:15:47 AM

Latest Report: Sep 1, 2015 at 9:51 AM


Visibility: 6 mi

Pressure: 30.13 "Hg

Humidity: 93%

Dew point: 61 °F

Location of MontpelierLocation

Historic Weather in Montpelier — Graph

°F

Montpelier temperature yesterday

Maximum temperature yesterday: 79 °F (at 2:51 PM)
Minimum temperature yesterday: 58 °F (at 2:51 AM)
Average temperature yesterday: 68 °F

Past Weeks' High & Low Weather Summary

 TemperatureHumidityPressure
High87 °F (Aug 18, 3:51 PM)100% (Aug 18, 2:51 AM)30.26 "Hg (Aug 18, 2:51 AM)
Low48 °F (Aug 28, 5:04 AM)35% (Aug 19, 4:51 PM)29.86 "Hg (Aug 24, 4:51 PM)
Average67 °F77%30.06 "Hg
* Reported Aug 17 8:53 AM — Sep 1 8:51 AM, Montpelier, Weather by CustomWeather, © 2015

Note: Actual official high and low records may vary slightly from our data, if they occured in-between our weather recording intervals... More about our weather records

Advertising

Montpelier weather history for previous 24 hours

 ConditionsComfort  
Time TempWeatherWind HumidityBarometerVisibility
8:51 AM
Tue, Sep 1
59 °FFog.3 mph96%30.14 "Hg0 mi
7:51 AM58 °FFog.No wind100%30.13 "Hg0 mi
6:51 AM56 °FFog.No wind97%30.11 "Hg0 mi
6:01 AM55 °FFog.No wind96%30.10 "Hg1 mi
4:51 AM57 °FFog.No wind96%30.08 "Hg0 mi
3:51 AM57 °FFog.No wind96%30.06 "Hg5 mi
2:51 AM58 °FFog.No wind93%30.05 "Hg5 mi
1:51 AM61 °FClear.No wind90%30.04 "Hg8 mi
12:51 AM62 °FClear.3 mph90%30.05 "Hg9 mi
10:51 PM
Mon, Aug 31
63 °FClear.No wind90%30.04 "Hg9 mi
9:51 PM68 °FClear.10 mph78%30.02 "Hg10 mi
8:51 PM67 °FClear.6 mph85%30.02 "Hg10 mi
7:51 PM69 °FSunny.8 mph76%30.01 "Hg10 mi
6:51 PM73 °FSunny.3 mph66%29.98 "Hg10 mi
5:51 PM74 °FScattered clouds.9 mph67%29.97 "Hg10 mi
4:51 PM75 °FPartly sunny.9 mph62%29.96 "Hg10 mi
3:51 PM78 °FPartly sunny.14 mph52%29.96 "Hg10 mi
2:51 PM79 °FPassing clouds.13 mph54%29.95 "Hg10 mi
1:51 PM78 °FPartly sunny.10 mph58%29.95 "Hg10 mi
12:51 PM78 °FBroken clouds.12 mph58%29.97 "Hg10 mi
11:51 AM76 °FBroken clouds.9 mph60%29.97 "Hg10 mi
10:51 AM75 °FPartly sunny.9 mph62%29.98 "Hg10 mi
Weather by CustomWeather, © 2015

See weather overviewHow to use our weather pages